www.pogodaiklimat.ru

Погода и климат >> Архив погоды >> Кипр >> Гиалуса


ПОГОДА в Гиалусе

  • Прогноз погоды в Гиалусе
  • Монитор погоды в Гиалусе

АРХИВ ПОГОДЫ в Гиалусе

Время (UTC), дата Ветер
(напр.,м/с)
 
Видим.   Явления Облачность Т
(С)
Тd
(С)
f
(%)
Тe
(С)
Тes
(С)
Комфортность P
(гПа)
Po
(гПа)
Тmin
(С)
Tmax
(С)
R
(мм)
R24
(мм)
S
(см)
09 16.07 СЗ 2 10 км 1/1 900 м
[Cu hum]
+28.1 +18.2 55 +33 +51 опасность
солнечного
удара
1006.9 993.2
12 16.07 С 4 10 км 1/1 900 м
[Cu hum]
+31.1 +15.3 38 +33 +44 душно 1006.3 992.6
15 16.07 СЗ 4 10 км 1/1 900 м
[Cu hum]
+29.1 +18.8 54 +34 +36 очень
душно
1006.1 992.4
18 16.07 штиль 0 10 км ясно +25.3 +18.9 68 +30 +30 душно 1006.0 992.2 +31.4
21 16.07 штиль 0 10 км ясно +23.2 +18.4 74 +29 +29 душно 1006.4 992.5
00 17.07 штиль 0 10 км ясно +22.5 +19.1 81 +28 +28 душно 1005.2 991.3
03 17.07 штиль 0 10 км ясно +22.1 +19.9 87 +28 +28 душно 1004.0 990.1
06 17.07 В 4 10 км ясно +26.5 +21.4 74 +34 +40 очень
душно
1003.5 989.7 +21.4
09 17.07 Ю 4 10 км ясно +30.7 +16.7 43 +34 +47 очень
душно
1002.6 989.1
12 17.07 В 6 10 км 3/3 750 м
[Cu hum]
+31.7 +17.1 42 +35 +40 очень
душно
1001.3 987.8
15 17.07 ЮВ 7 10 км 4/4 750 м
[Cu hum]
+29.2 +18.1 51 +34 +34 очень
душно
1000.0 986.5
18 17.07 Ю 3 10 км в посл. час ливневой дождь 4/4 750 м
[Cu med, cong]
+25.4 +21.7 80 +33 +33 очень
душно
1001.0 987.2 +32.4 0.6
00 18.07 штиль 0 10 км 1/1 750 м
[Cu hum]
+23.6 +19.4 77 +29 +29 душно 1002.3 988.4
03 18.07 З 3 10 км ясно +24.0 +19.6 76 +29 +29 душно 1003.1 989.3
06 18.07 З 3 10 км ясно +25.8 +19.4 68 +31 +39 очень
душно
1004.1 990.3 +22.6
09 18.07 З 6 10 км 6/6 900 м
[Cu med, cong]
+28.5 +18.6 55 +34 +37 очень
душно
1005.6 991.9
12 18.07 СЗ 5 10 км 6/6 750 м
[Cb cap]
+29.1 +19.3 56 +35 +38 очень
душно
1005.9 992.2
15 18.07 СЗ 4 10 км 6/6 750 м
[Cb cap]
+27.5 +18.9 59 +33 +33 очень
душно
1006.3 992.6
18 18.07 СЗ 3 10 км 1/1 900 м
[Cu hum]
+24.8 +19.6 73 +30 +30 душно 1007.5 993.7 +30.3
21 18.07 С 4 10 км 1/1 900 м
[Cu hum]
+24.4 +19.8 76 +30 +30 очень
душно
1008.8 994.9
00 19.07 В 3 10 км ясно +24.1 +19.5 75 +29 +29 душно 1008.7 994.7
03 19.07 З 3 10 км ясно +23.2 +19.6 80 +30 +30 очень
душно
1009.2 995.3
06 19.07 З 3 10 км ясно +26.0 +19.1 66 +31 +39 очень
душно
1010.0 998.1 +22.9
09 19.07 СЗ 5 10 км 1/1 750 м
[Cu hum]
+29.1 +19.9 58
12 19.07 С 3 10 км 1/1 750 м
[Cu hum]
+31.4 +20.4 52 +38 +51 опасность
солнечного
удара
1009.8 996.1
15 19.07 СВ 4 10 км 1/1 750 м
[Cu hum]
+28.2 +20.3 62 +35 +36 очень
душно
1009.5 995.7
18 19.07 С 3 10 км 1/1 750 м
[Cu hum]
+25.4 +20.7 75 +32 +32 очень
душно
1010.2 996.4 +32.0
21 19.07 ЮЗ 4 10 км ясно +24.7 +20.3 77 +31 +31 очень
душно
1010.4 996.5
00 20.07 СЗ 3 10 км ясно +24.6 +21 +21 комфорт 1009.6 995.7
03 20.07 ЮЗ 2 10 км ясно +24.0 +18.9 73 +29 +29 душно 1009.6 995.7
06 20.07 СЗ 3 10 км ясно +26.6 +21.2 72 +34 +41 очень
душно
1010.0 996.2 +22.9
09 20.07 В 5 10 км ясно +29.1 +21.9 65 +37 +49 очень
душно
1009.9 996.1
12 20.07 В 4 10 км 1/1 900 м
[Cu hum]
+31.1 +21.7 57 +39 +50 очень
душно
1009.1 995.5
15 20.07 СВ 0 10 км ясно +28.7 1008.4 994.6
18 20.07 СЗ 5 10 км ясно +25.8 +20.6 73 +32 +32 очень
душно
1008.4 994.6 +31.2
21 20.07 В 4 10 км ясно +25.4 +21.2 78 +32 +32 очень
душно
1008.7 994.8
00 21.07 СВ 6 10 км ясно +25.7 +20.4 73 +32 +32 очень
душно
1007.7 993.9
03 21.07 СВ 8 10 км ясно +25.2 +23.0 88 +34 +34 очень
душно
1007.4 993.6
06 21.07 З 4 10 км ясно +26.0 +23.2 85 +35 +41 очень
душно
1008.0 994.2 +24.9
09 21.07 СВ 3 10 км ясно +30.3 +22.3 62 +39 +57 опасность
солнечного
удара
1007.7 994.1
12 21.07 СЗ 3 10 км ясно +33.8 +15.0 32 +35 +49 очень
жарко
1006.7 993.2
15 21.07 В 4 10 км ясно +31.0 +11.7 31 +31 +33 жарко 1006.0 992.5
18 21.07 Ю 4 10 км ясно +27.5 +19.6 62 +33 +33 очень
душно
1006.1 992.4 +34.7
21 21.07 СВ 8 10 км ясно +26.6 +20.2 68 +33 +33 очень
душно
1006.3 992.5
00 22.07 В 5 10 км ясно +26.6 +20.7 70 +33 +33 очень
душно
1005.9 992.1
03 22.07 СВ 4 10 км ясно +25.3 +22.5 84 +33 +33 очень
душно
1005.8 992.0
06 22.07 СЗ 3 10 км ясно +27.5 +23.6 79 +37 +45 очень
душно
1006.3 992.6 +25.1
09 22.07 С 5 10 км ясно +31.1 +16.2 41 +34 +44 душно 1006.7 993.1
12 22.07 С 3 10 км 1/1 900 м
[Cu hum]
+33.7 +12.3 27 +34 +46 очень
жарко
1005.7 992.3
15 22.07 Ю 7 10 км 1/1 900 м
[Cu hum]
+31.5 +19.8 50 +38 +38 очень
душно
1004.8 991.2
18 22.07 ЮЗ 4 10 км ясно +27.7 +20.3 64 +34 +34 очень
душно
1004.9 991.2 +35.9

 

Местоположение метеостанции Гиалуса (Кипр): широта 35.53 долгота 34.02 высота над уровнем моря 123 м.

В архиве по умолчанию представлена погода в Гиалусе за последнюю неделю. Архивные данные за месяц целиком и за предыдущие месяцы, начиная с января 2011 года, Вы можете получить, выбрав интересующий диапазон дат из раскрывающегося списка и нажав кнопку "Ввод!".


*Определитесь, кто Вы:
робот инопланетянин человек

Внимание! Время в таблицах - всемирное. Для получения местного времени необходимо прибавить поправку, которая равна 2 ч.

Смотрите также архив погоды в соседних городах и на ближайших метеорологических станциях:

Погода в Искеле (Кипр) (31 км)
Погода в Ризокарпасо (Кипр) (33 км)
Погода в Лефконико (Кипр) (41 км)
Погода на Базе ВВС Gecitkale (Кипр) (42 км)
Погода в Фамагусте (Кипр) (45 км)
Погода в Unknown (Кипр) (59 км)
Погода в Никосии (Кипр) (63 км)
Погода в Киринии (Кипр) (67 км)
Погода в Аталассе (Кипр) (70 км)
Погода в Ларнаке (Кипр) (81 км)

Пояснения к столбцам:

Ветер - указаны скорость ветра в м/с - средняя за 10 мин, порывы в срок и между сроками (в фигурных скобках) и направление, откуда дует ветер: С - северный, СВ - северо-восточный, В - восточный, ЮВ - юго-восточный, Ю - южный, ЮЗ - юго-западный, З - западный, СЗ - северо-западный.
Видимость - горизонтальная дальность видимости в метрах или километрах. При видимости от 1 до 10 км при отсутствии осадков обычно наблюдается дымка, при ухудшении видимости до 1 км и менее - туман. В сухую погоду видимость может ухудшаться дымом, пылью или мглою.
Явления - указаны атмосферные явления, наблюдавшиеся в срок или в последний час перед сроком; фигурными скобками обозначены явления, наблюдавшиеся между сроками (за 1-3 часа до срока); квадратными скобками обозначены град или гололедные отложения с указанием их диаметра в мм.
Облачность - указаны через наклонную черту общая и нижняя облачность в баллах и высота нижней границы облаков в метрах; квадратными скобками обозначены формы облаков: Ci - перистые, Cs - перисто-слоистые, Cc - перисто-кучевые, Ac - высококучевые, As - высокослоистые, Sc - слоисто-кучевые, Ns - слоисто-дождевые, Cu - кучевые, Cb - кучево-дождевые. Подробнее классификацию облаков см. в Атласе облаков (PDF).
T - Температура воздуха - температура, измеренная на высоте 2 м над землей.
Td - Температура точки росы - температура, при понижении до которой содержащийся в воздухе водяной пар достигнет насыщения.
f - Относительная влажность воздуха - влажноcть воздуха, измеренная на высоте 2 м над землей.
Te - Эффективная температура - температура, которую ощущает одетый по сезону человек в тени. Характеристика душности погоды. При расчете учитывается влияние влажности воздуха и скорости ветра на теплоощущения человека.
Tes - Эффективная температура на солнце - температура, которую ощущает человек, с поправкой на солнечный нагрев. Характеристика знойности погоды. Зависит от высоты солнца над горизонтом, облачности и скорости ветра. Ночью, в пасмурную погоду, а также при ветре 12 м/с и более поправка равна нулю.
P - Атмосферное давление - приведенное к уровню моря атмосферное давление.
Po - Атмосферное давление - измеренное на уровне метеостанции атмосферное давление.
Tmin - Минимальная температура - минимум температуры воздуха на высоте 2 м над землей.
Tmax - Максимальная температура - максимум температуры воздуха на высоте 2 м над землей.
R - Количество осадков - Количество выпавших осадков за период времени, мм. При наведении курсора мыши на число - период времени, за который выпало указанное количество осадков.
R24 - Количество осадков - Количество выпавших осадков за 24 часа, мм.
S - Снежный покров - Высота снежного покрова, см. При наведении курсора мыши на число - состояние снежного покрова и степень покрытия местности в баллах.